Actual water levels and discharges of Vltava river

Vraňany

Date and time (UTC) H (cm) Q (m³/s)
22. 3. 2023 17:20 113 166
22. 3. 2023 17:00 113 166
22. 3. 2023 16:00 111 163
22. 3. 2023 15:00 113 166
22. 3. 2023 14:00 105 155
22. 3. 2023 13:00 102 151
22. 3. 2023 12:00 99 147
22. 3. 2023 11:00 102 151
22. 3. 2023 10:00 107 157
22. 3. 2023 09:00 114 167
22. 3. 2023 08:00 115 168
22. 3. 2023 07:00 109 160
22. 3. 2023 06:00 109 160
22. 3. 2023 05:00 109 160

H - water level, Q - discharge

Praha-Chuchle

Date and time (UTC) H (cm) Q (m³/s)
22. 3. 2023 17:20 73 153
22. 3. 2023 17:00 73 153
22. 3. 2023 16:00 73 153
22. 3. 2023 15:00 73 153
22. 3. 2023 14:00 73 153
22. 3. 2023 13:00 73 153
22. 3. 2023 12:00 73 153
22. 3. 2023 11:00 73 153
22. 3. 2023 10:00 73 153
22. 3. 2023 09:00 73 153
22. 3. 2023 08:00 73 153
22. 3. 2023 07:00 73 153
22. 3. 2023 06:00 73 153
22. 3. 2023 05:00 73 153

H - water level, Q - discharge
more information

VD Vrané nad Vltavou

Date and time (UTC) H (m n. m.) Q (m³/s)
22. 3. 2023 17:30 199.35 100.3
22. 3. 2023 17:00 199.31 100
22. 3. 2023 16:00 199.28 100
22. 3. 2023 15:00 199.35 99
22. 3. 2023 14:00 199.44 99
22. 3. 2023 13:00 199.53 100
22. 3. 2023 12:00 199.65 100
22. 3. 2023 11:00 199.75 101
22. 3. 2023 10:00 199.70 101
22. 3. 2023 09:00 199.60 101
22. 3. 2023 08:00 199.51 100
22. 3. 2023 07:00 199.41 100
22. 3. 2023 06:00 199.41 99
22. 3. 2023 05:00 199.54 99

H - water level, Q - outflow

VD Štěchovice

Date and time (UTC) H (m n. m.) Q (m³/s)
22. 3. 2023 17:30 218.35 150.9
22. 3. 2023 17:00 218.25 141
22. 3. 2023 16:00 218.49 72
22. 3. 2023 15:00 218.40 24
22. 3. 2023 14:00 218.49 23
22. 3. 2023 13:00 218.59 24
22. 3. 2023 12:00 218.70 24
22. 3. 2023 11:00 218.81 65
22. 3. 2023 10:00 219.07 140
22. 3. 2023 09:00 218.86 140
22. 3. 2023 08:00 218.61 140
22. 3. 2023 07:00 218.52 140
22. 3. 2023 06:00 218.33 79
22. 3. 2023 05:00 218.35 0

H - water level, Q - outflow

VD Slapy

Date and time (UTC) H (m n. m.) Q (m³/s)
22. 3. 2023 17:30 268.23 210
22. 3. 2023 17:00 268.23 77
22. 3. 2023 16:00 268.23 84
22. 3. 2023 15:00 268.20 42
22. 3. 2023 14:00 268.17 0
22. 3. 2023 13:00 268.14 0
22. 3. 2023 12:00 268.08 0
22. 3. 2023 11:00 268.09 0
22. 3. 2023 10:00 268.02 150
22. 3. 2023 09:00 268.03 194
22. 3. 2023 08:00 268.04 136
22. 3. 2023 07:00 267.98 150
22. 3. 2023 06:00 268.03 73
22. 3. 2023 05:00 268.02 0

H - water level, Q - outflow

VD Kamýk

Date and time (UTC) H (m n. m.) Q (m³/s)
22. 3. 2023 17:30 282.55 -
22. 3. 2023 17:00 282.50 -
22. 3. 2023 16:00 282.77 -
22. 3. 2023 15:00 283.01 -
22. 3. 2023 14:00 283.28 -
22. 3. 2023 13:00 283.55 -
22. 3. 2023 12:00 283.74 -
22. 3. 2023 11:00 283.76 -
22. 3. 2023 10:00 283.72 -
22. 3. 2023 09:00 283.63 -
22. 3. 2023 08:00 283.17 -
22. 3. 2023 07:00 282.79 -
22. 3. 2023 06:00 282.43 -
22. 3. 2023 05:00 282.45 -

H - water level, Q - outflow

VD Orlík

Date and time (UTC) H (m n. m.) Q (m³/s)
22. 3. 2023 17:30 339.85 262.3
22. 3. 2023 17:00 339.87 87
22. 3. 2023 16:00 339.85 0
22. 3. 2023 15:00 339.85 0
22. 3. 2023 14:00 339.83 0
22. 3. 2023 13:00 339.81 0
22. 3. 2023 12:00 339.81 90
22. 3. 2023 11:00 339.81 123
22. 3. 2023 10:00 339.83 197
22. 3. 2023 09:00 339.85 418
22. 3. 2023 08:00 339.93 422
22. 3. 2023 07:00 339.99 344
22. 3. 2023 06:00 340.06 105
22. 3. 2023 05:00 340.04 0

H - water level, Q - outflow

VD Kořensko

Date and time (UTC) H (m n. m.) Q (m³/s)
22. 3. 2023 17:30 352.51 55.2
22. 3. 2023 17:00 352.50 53
22. 3. 2023 16:00 352.48 35
22. 3. 2023 15:00 352.49 35
22. 3. 2023 14:00 352.50 35
22. 3. 2023 13:00 352.50 35
22. 3. 2023 12:00 352.51 36
22. 3. 2023 11:00 352.52 36
22. 3. 2023 10:00 352.54 36
22. 3. 2023 09:00 352.54 37
22. 3. 2023 08:00 352.53 45
22. 3. 2023 07:00 352.51 45
22. 3. 2023 06:00 352.51 48
22. 3. 2023 05:00 352.51 52

H - water level, Q - outflow

VD Hněvkovice I - přehrada

Date and time (UTC) H (m n. m.) Q (m³/s)
- - -

H - water level, Q - outflow

České Budějovice

Date and time (UTC) H (cm) Q (m³/s)
22. 3. 2023 17:10 110 31.2
22. 3. 2023 17:00 110 31
22. 3. 2023 16:00 112 34
22. 3. 2023 15:00 109 28
22. 3. 2023 14:00 110 29
22. 3. 2023 13:00 108 27
22. 3. 2023 12:00 108 26
22. 3. 2023 11:00 111 28
22. 3. 2023 10:00 108 25
22. 3. 2023 09:00 106 25
22. 3. 2023 08:00 109 28
22. 3. 2023 07:00 109 26
22. 3. 2023 06:00 108 27
22. 3. 2023 05:00 109 29

H - water level, Q - discharge
more information

Vyšší Brod

Date and time (UTC) H (cm) Q (m³/s)
22. 3. 2023 17:20 107 20.4
22. 3. 2023 17:00 107 20
22. 3. 2023 16:00 108 21
22. 3. 2023 15:00 108 21
22. 3. 2023 14:00 108 21
22. 3. 2023 13:00 108 21
22. 3. 2023 12:00 108 21
22. 3. 2023 11:00 108 21
22. 3. 2023 10:00 109 21
22. 3. 2023 09:00 109 21
22. 3. 2023 08:00 108 21
22. 3. 2023 07:00 107 20
22. 3. 2023 06:00 107 20
22. 3. 2023 05:00 108 21

H - water level, Q - discharge
Source data
Labe Basin Vltava Basin Povodí Moravy ČHMÚ